[[{"header":{"parameterUnit":"m.s-1","parameterCategory":1,"la1":30.2991,"la2":30.254,"lo1":-89.0895,"lo2":-89.0444,"dy":0.0017,"dx":0.0017,"nx":28,"ny":28,"refTime":"2024-06-22T09:00:00:Z","depth":0,"parameterNumber":2,"parameterNumberName":"U-component_of_WINDS"},"data":[0,0,0,0,0,0,0,0,0,0,0,0,0,0,0,0,0,0,0,0,0,0,0,0,0,0,0,0,0,0,0,0,0,0,0,0,0,0,0,0,0,0,0,0,0,0,0,0,0,0,0,0,0,0,0,0,0,0,-1.8511,-1.8511,0,-1.8462,-1.8461,-1.846,-1.8432,-1.8432,-1.8432,-1.8432,-1.8379,-1.8378,-1.8377,0,0,0,0,0,0,0,0,0,0,0,0,0,-1.858,-1.8579,-1.8511,-1.8511,-1.851,-1.8462,-1.8461,-1.846,-1.8432,-1.8432,-1.8432,-1.8432,-1.838,-1.8378,-1.8376,0,0,0,0,0,0,0,0,0,0,0,0,0,-1.8542,-1.8579,-1.8511,-1.849,-1.8488,-1.8462,-1.8461,-1.846,-1.8432,-1.8432,-1.8432,-1.8432,-1.838,-1.8378,-1.8376,-1.8367,0,0,-1.837,-1.8369,0,0,0,0,0,0,0,0,-1.8544,-1.854,-1.8494,-1.8491,-1.8489,-1.8453,-1.8466,-1.8429,-1.8432,-1.8453,-1.8432,-1.8432,-1.8404,-1.84,-1.8391,-1.8365,-1.8362,-1.837,-1.8369,-1.8368,-1.8367,0,0,0,0,0,0,0,-1.8547,-1.8542,-1.8491,-1.8493,-1.849,-1.8483,-1.8477,-1.8459,-1.843,-1.8451,-1.8449,-1.8444,-1.8402,-1.8393,-1.8389,-1.8362,-1.837,-1.8368,-1.8367,-1.8366,-1.8326,-1.8326,0,0,0,0,0,0,-1.8553,-1.8544,-1.8493,-1.849,-1.8517,-1.8482,-1.8475,-1.8464,-1.843,-1.8425,-1.8444,-1.8443,-1.8396,-1.8392,-1.8387,-1.8375,-1.8368,-1.8366,-1.8365,-1.8326,-1.8326,-1.8326,0,0,0,0,0,0,-1.8555,-1.8549,-1.8495,-1.8516,-1.8509,-1.848,-1.8469,-1.8464,-1.8454,-1.8424,-1.8419,-1.844,-1.8396,-1.839,-1.8373,-1.8373,-1.8365,-1.8364,-1.8326,-1.8326,-1.8326,-1.835,0,0,0,0,0,0,-1.8557,-1.855,-1.8546,-1.8517,-1.8508,-1.8482,-1.8469,-1.8463,-1.8451,-1.8449,-1.8419,-1.8414,-1.8395,-1.8376,-1.8371,-1.837,-1.8362,-1.8326,-1.8326,-1.8326,-1.8349,-1.8351,-1.8352,0,0,0,0,0,-1.856,-1.8554,-1.8546,-1.854,-1.8503,-1.8482,-1.8477,-1.8456,-1.8451,-1.8447,-1.8428,-1.8415,-1.8374,-1.8374,-1.8368,-1.8367,-1.8326,-1.8326,-1.8326,-1.8348,-1.835,-1.8352,0,0,0,0,0,0,-1.8584,-1.855,-1.8541,-1.8526,-1.8507,-1.8477,-1.8471,-1.8459,-1.8441,-1.8439,-1.8414,-1.8407,-1.8393,-1.8378,-1.8379,-1.8357,-1.8348,-1.8347,-1.8367,-1.8369,-1.8371,-1.8375,-1.836,0,0,0,0,0,-1.8587,-1.8573,-1.8544,-1.8534,-1.8525,-1.85,-1.849,-1.8476,-1.8455,-1.8447,-1.8426,-1.8406,-1.8389,-1.8378,-1.836,-1.8347,-1.834,-1.8343,-1.8345,-1.8346,-1.8346,-1.8338,-1.8339,-1.8327,-1.8327,-1.8327,0,0,-1.8594,-1.8574,-1.8567,-1.8538,-1.8522,-1.8508,-1.8493,-1.8479,-1.8468,-1.8444,-1.8427,-1.8411,-1.8387,-1.8372,-1.8364,-1.8359,-1.8348,-1.8346,-1.8348,-1.8347,-1.8339,-1.834,-1.8341,-1.8327,-1.8327,-1.8327,0,0,-1.86,-1.8584,-1.8574,-1.8558,-1.8534,-1.8518,-1.8515,-1.8487,-1.8477,-1.8459,-1.8441,-1.8428,-1.8398,-1.8382,-1.837,-1.8371,-1.8358,-1.8366,-1.8375,-1.8368,-1.8369,-1.837,-1.8371,-1.8372,-1.8366,-1.8366,-1.8366,0,-1.8612,-1.8591,-1.857,-1.8557,-1.8545,-1.8524,-1.8513,-1.8499,-1.847,-1.8462,-1.8457,-1.842,-1.8403,-1.8384,-1.8384,-1.8375,-1.8372,-1.8369,-1.8371,-1.8371,-1.8372,-1.8373,-1.8373,-1.8367,-1.8367,-1.8367,-1.8366,0,-1.8607,-1.8592,-1.8587,-1.8561,-1.8548,-1.8536,-1.8514,-1.8503,-1.849,-1.8475,-1.8457,-1.8435,-1.8413,-1.8408,-1.8395,-1.8387,-1.8385,-1.8376,-1.8367,-1.8374,-1.8375,-1.8375,-1.8369,-1.8368,-1.8368,-1.8367,0,0,-1.8626,-1.8589,-1.8588,-1.8576,-1.8549,-1.8537,-1.8524,-1.8504,-1.8496,-1.8477,-1.8466,-1.8442,-1.8433,-1.842,-1.8404,-1.8398,-1.8402,-1.839,-1.8389,-1.8393,-1.8393,-1.8401,-1.8402,-1.8393,-1.8393,-1.8393,-1.8396,0,-1.8628,-1.8605,-1.8587,-1.8571,-1.8557,-1.8538,-1.8527,-1.8509,-1.8494,-1.848,-1.8463,-1.8447,-1.8436,-1.8428,-1.8421,-1.8403,-1.8402,-1.8402,-1.8383,-1.8382,-1.839,-1.8402,-1.8409,-1.8413,-1.8395,-1.8395,-1.8395,0,-1.8628,-1.8611,-1.8594,-1.8569,-1.8563,-1.8553,-1.8534,-1.852,-1.85,-1.8489,-1.8475,-1.8459,-1.8445,-1.8438,-1.8418,-1.8419,-1.841,-1.84,-1.84,-1.8397,-1.839,-1.84,-1.8413,-1.8414,-1.8395,-1.8395,-1.8395,0,-1.8644,-1.8617,-1.8604,-1.8594,-1.8565,-1.8559,-1.8546,-1.8525,-1.8514,-1.8497,-1.849,-1.847,-1.846,-1.8445,-1.8425,-1.8421,-1.8408,-1.8398,-1.8399,-1.8399,-1.8397,-1.8397,-1.8409,-1.839,-1.839,-1.839,-1.839,0,-1.8649,-1.864,-1.8611,-1.8603,-1.8592,-1.8571,-1.856,-1.8546,-1.8527,-1.8516,-1.8497,-1.8487,-1.8461,-1.8447,-1.8431,-1.8418,-1.8413,-1.8404,-1.84,-1.8406,-1.8408,-1.84,-1.84,-1.839,-1.839,-1.839,-1.839,0,-1.8666,-1.8646,-1.863,-1.8604,-1.8597,-1.8591,-1.8568,-1.8559,-1.8544,-1.8529,-1.8525,-1.85,-1.8483,-1.8462,-1.8438,-1.8427,-1.8416,-1.8409,-1.8423,-1.8421,-1.8423,-1.8423,-1.8431,-1.8431,-1.8412,-1.8412,-1.8412,0,-1.867,-1.8663,-1.8636,-1.8628,-1.8616,-1.8602,-1.8591,-1.857,-1.856,-1.8536,-1.853,-1.8512,-1.8497,-1.8471,-1.8451,-1.8433,-1.8426,-1.843,-1.8423,-1.843,-1.8427,-1.8428,-1.8427,-1.8432,-1.8432,-1.8432,-1.8432,0,-1.8681,-1.8672,-1.8657,-1.864,-1.8628,-1.8613,-1.8597,-1.8591,-1.8566,-1.8555,-1.8539,-1.8527,-1.8503,-1.8486,-1.8465,-1.8451,-1.8438,-1.8435,-1.8434,-1.844,-1.8449,-1.8445,-1.8429,-1.8435,-1.8434,-1.8434,-1.8434,-1.8434,-1.8691,-1.8684,-1.8665,-1.865,-1.8636,-1.8622,-1.8613,-1.8597,-1.8583,-1.8563,-1.8551,-1.8535,-1.8515,-1.8486,-1.8473,-1.846,-1.8455,-1.8453,-1.8453,-1.8453,-1.8456,-1.8451,-1.8456,-1.8456,-1.8456,-1.8456,-1.8456,0,-1.8701,-1.8688,-1.8675,-1.8654,-1.8642,-1.8631,-1.8614,-1.8604,-1.8591,-1.8574,-1.8559,-1.8541,-1.8524,-1.8503,-1.8485,-1.8478,-1.8472,-1.8474,-1.8475,-1.8472,-1.8461,-1.8464,-1.848,-1.848,-1.848,-1.848,-1.848,-1.848,-1.8705,-1.8693,-1.8682,-1.8663,-1.865,-1.8635,-1.8626,-1.8613,-1.8599,-1.8579,-1.8566,-1.8553,-1.8534,-1.8515,-1.8499,-1.8493,-1.8487,-1.8492,-1.8485,-1.8475,-1.8473,-1.8471,-1.8473,-1.8491,-1.8491,-1.8497,-1.8497,-1.8497]},{"header":{"parameterUnit":"m.s-1","parameterCategory":1,"la1":30.2991,"la2":30.254,"lo1":-89.0895,"lo2":-89.0444,"dy":0.0017,"dx":0.0017,"nx":28,"ny":28,"refTime":"2024-06-22T09:00:00:Z","depth":0,"parameterNumber":3,"parameterNumberName":"V-component_of_WINDS"},"data":[0,0,0,0,0,0,0,0,0,0,0,0,0,0,0,0,0,0,0,0,0,0,0,0,0,0,0,0,0,0,0,0,0,0,0,0,0,0,0,0,0,0,0,0,0,0,0,0,0,0,0,0,0,0,0,0,0,0,-1.1641,-1.1641,0,-1.17,-1.17,-1.1701,-1.1715,-1.1714,-1.1714,-1.1713,-1.1773,-1.1775,-1.1777,0,0,0,0,0,0,0,0,0,0,0,0,0,-1.1539,-1.154,-1.1641,-1.1641,-1.1642,-1.17,-1.17,-1.1701,-1.1715,-1.1714,-1.1714,-1.1713,-1.1773,-1.1775,-1.1777,0,0,0,0,0,0,0,0,0,0,0,0,0,-1.1589,-1.1541,-1.164,-1.1656,-1.1658,-1.1699,-1.17,-1.1701,-1.1715,-1.1714,-1.1714,-1.1713,-1.1772,-1.1775,-1.1778,-1.1808,0,0,-1.1787,-1.1788,0,0,0,0,0,0,0,0,-1.1586,-1.1593,-1.1653,-1.1655,-1.1657,-1.1699,-1.1686,-1.1737,-1.1715,-1.1693,-1.1713,-1.1713,-1.1749,-1.1754,-1.1766,-1.1811,-1.1814,-1.1787,-1.1789,-1.179,-1.1791,0,0,0,0,0,0,0,-1.1582,-1.159,-1.1664,-1.1654,-1.1656,-1.1659,-1.1666,-1.1696,-1.1724,-1.1695,-1.1696,-1.1703,-1.175,-1.1763,-1.1768,-1.1814,-1.1787,-1.1789,-1.1791,-1.1792,-1.1888,-1.1889,0,0,0,0,0,0,-1.1576,-1.1587,-1.1662,-1.1666,-1.1619,-1.1662,-1.1669,-1.1686,-1.1723,-1.1729,-1.1703,-1.1703,-1.1759,-1.1764,-1.177,-1.1809,-1.179,-1.1793,-1.1794,-1.1887,-1.1888,-1.1889,0,0,0,0,0,0,-1.1574,-1.1583,-1.166,-1.1627,-1.1637,-1.1664,-1.1683,-1.1688,-1.1701,-1.173,-1.1735,-1.1712,-1.1758,-1.1766,-1.1799,-1.1811,-1.1794,-1.1797,-1.1887,-1.1888,-1.1889,-1.1888,0,0,0,0,0,0,-1.1571,-1.1582,-1.1594,-1.1627,-1.1639,-1.1688,-1.1684,-1.1689,-1.1706,-1.1707,-1.1739,-1.1744,-1.1758,-1.1794,-1.1802,-1.1815,-1.1799,-1.1886,-1.1887,-1.1888,-1.1887,-1.1888,-1.189,0,0,0,0,0,-1.1568,-1.1591,-1.1595,-1.1604,-1.1654,-1.1689,-1.1695,-1.1712,-1.1707,-1.172,-1.1738,-1.1743,-1.1808,-1.1798,-1.1806,-1.1821,-1.1885,-1.1887,-1.1888,-1.1886,-1.1888,-1.189,0,0,0,0,0,0,-1.1559,-1.1596,-1.16,-1.1635,-1.1659,-1.1691,-1.1707,-1.1713,-1.1738,-1.1738,-1.1757,-1.1764,-1.1796,-1.1811,-1.1799,-1.1853,-1.1847,-1.185,-1.1842,-1.1844,-1.1846,-1.1842,-1.1802,0,0,0,0,0,-1.1561,-1.1586,-1.1617,-1.1644,-1.1656,-1.1679,-1.1695,-1.1706,-1.1731,-1.1741,-1.1762,-1.1786,-1.1812,-1.1828,-1.1854,-1.1888,-1.1896,-1.1902,-1.1904,-1.1906,-1.1909,-1.1929,-1.1933,-1.1895,-1.1895,-1.1895,0,0,-1.1566,-1.1589,-1.1603,-1.1643,-1.1663,-1.1689,-1.1688,-1.1715,-1.1734,-1.1745,-1.1778,-1.1794,-1.1822,-1.1856,-1.1872,-1.187,-1.1921,-1.1908,-1.1909,-1.1911,-1.1931,-1.1935,-1.1938,-1.1896,-1.1896,-1.1896,0,0,-1.1588,-1.1607,-1.1633,-1.1653,-1.1683,-1.1698,-1.1704,-1.1735,-1.1747,-1.178,-1.1789,-1.1812,-1.1856,-1.1876,-1.1892,-1.1922,-1.1927,-1.1929,-1.1939,-1.1959,-1.1962,-1.1964,-1.1976,-1.198,-1.1932,-1.1932,-1.1932,0,-1.159,-1.1629,-1.1646,-1.1673,-1.169,-1.1701,-1.1728,-1.1746,-1.1782,-1.1794,-1.1791,-1.1847,-1.1867,-1.1906,-1.1913,-1.1925,-1.1934,-1.1926,-1.196,-1.1963,-1.1966,-1.1977,-1.1981,-1.1932,-1.1932,-1.1932,-1.1932,0,-1.1631,-1.1658,-1.1675,-1.1711,-1.173,-1.1756,-1.1777,-1.1794,-1.1803,-1.1819,-1.1853,-1.1877,-1.1908,-1.1917,-1.1926,-1.1958,-1.1956,-1.1956,-1.1951,-1.1969,-1.198,-1.1985,-1.1932,-1.1932,-1.1932,-1.1932,0,0,-1.165,-1.1694,-1.1701,-1.1717,-1.1751,-1.1772,-1.1799,-1.1829,-1.1845,-1.1869,-1.1893,-1.193,-1.193,-1.1948,-1.1959,-1.1976,-1.1999,-1.1974,-1.1975,-1.1979,-1.2038,-1.2039,-1.2043,-1.2002,-1.2003,-1.2004,-1.2036,0,-1.1677,-1.1727,-1.1742,-1.1783,-1.1809,-1.1819,-1.1843,-1.1866,-1.1881,-1.1905,-1.1921,-1.1948,-1.1946,-1.1957,-1.1974,-1.1993,-1.2011,-1.199,-1.2025,-1.2026,-1.202,-1.2049,-1.205,-1.2079,-1.204,-1.2041,-1.2041,0,-1.1716,-1.1742,-1.1786,-1.1817,-1.1828,-1.1849,-1.1879,-1.1901,-1.1927,-1.1937,-1.1957,-1.1967,-1.1995,-1.1987,-1.2027,-1.2013,-1.2028,-1.2039,-1.204,-1.2045,-1.2036,-1.2056,-1.2088,-1.2093,-1.2048,-1.2048,-1.2047,0,-1.1727,-1.1773,-1.1805,-1.1819,-1.1855,-1.187,-1.1886,-1.1912,-1.1929,-1.1955,-1.1967,-1.1995,-1.2011,-1.2032,-1.2049,-1.2041,-1.2088,-1.2081,-1.2098,-1.2098,-1.2109,-1.2108,-1.2145,-1.2115,-1.2115,-1.2115,-1.2115,0,-1.1757,-1.1784,-1.1811,-1.1831,-1.1861,-1.1879,-1.1908,-1.1925,-1.1947,-1.1971,-1.1981,-1.2003,-1.2023,-1.2047,-1.206,-1.2092,-1.2099,-1.2108,-1.2111,-1.2108,-1.2107,-1.2119,-1.2118,-1.2116,-1.2116,-1.2116,-1.2116,0,-1.1776,-1.1795,-1.1831,-1.1863,-1.1871,-1.1892,-1.1919,-1.1939,-1.1954,-1.1984,-1.1992,-1.2016,-1.2045,-1.2064,-1.2101,-1.211,-1.2145,-1.2147,-1.2137,-1.2139,-1.2155,-1.2154,-1.2202,-1.221,-1.2174,-1.2174,-1.2174,0,-1.1794,-1.1815,-1.1849,-1.1866,-1.1882,-1.1908,-1.1927,-1.1944,-1.1963,-1.1994,-1.2011,-1.2041,-1.2066,-1.2112,-1.2133,-1.2161,-1.2165,-1.218,-1.2169,-1.2166,-1.2167,-1.2166,-1.2169,-1.2182,-1.2183,-1.2183,-1.2183,0,-1.1825,-1.1834,-1.186,-1.189,-1.1911,-1.1935,-1.1959,-1.1972,-1.1994,-1.2014,-1.2044,-1.2064,-1.2102,-1.2132,-1.2162,-1.2178,-1.2185,-1.2186,-1.2192,-1.2189,-1.2183,-1.2188,-1.2143,-1.2185,-1.2185,-1.2185,-1.2185,-1.2185,-1.1846,-1.1865,-1.1892,-1.1921,-1.1941,-1.1963,-1.1984,-1.2002,-1.2028,-1.2061,-1.2069,-1.2101,-1.2127,-1.2169,-1.2185,-1.221,-1.2209,-1.2216,-1.2219,-1.2221,-1.2222,-1.2178,-1.2216,-1.2216,-1.2216,-1.2216,-1.2216,0,-1.1879,-1.1897,-1.1923,-1.1957,-1.1979,-1.1983,-1.201,-1.2029,-1.2057,-1.2081,-1.2105,-1.214,-1.2169,-1.2192,-1.2222,-1.2238,-1.2242,-1.2246,-1.2245,-1.2249,-1.2221,-1.2214,-1.2242,-1.2242,-1.2242,-1.2242,-1.2242,-1.2242,-1.1899,-1.1933,-1.1944,-1.1988,-1.2006,-1.2038,-1.2053,-1.2073,-1.2092,-1.2131,-1.2156,-1.2171,-1.2194,-1.2226,-1.2253,-1.2259,-1.227,-1.2273,-1.228,-1.2254,-1.2251,-1.2248,-1.2242,-1.2275,-1.2275,-1.2306,-1.2307,-1.2307]}]]